SCP
0 0 0 0 0 0 0 0 0 0 0 0 0 0 0 0 0 0 0 0 0 0 0 0 0 0 0 0 0 0 0 0 0 0 0 0 0 0
0 0 0 0 0 0 0 0 0 0 0 0 0 0 0 0 0 0 0 0 0 0 0 0 0 0 0 0 0 0 0 0 0 0 0 0 0 0
0 0 0 0 0 0 0 0 0 0 0 0 0 0 0 0 0 0 0 0 0 0 0 0 0 0 0 0 0 0 0 0 0 0 0 0 0 0
0 0 0 0 0 0 0 0 0 0 0 0 0 0 0 0 0 0 0 0 0 0 0 0 0 0 0 0 0 0 0 0 0 0 0 0 0 0
0 0 0 0 0 0 0 0 0 0 0 0 0 0 0 0 0 0 0 0 0 0 0 0 0 0 0 0 0 0 0 0 0 0 0 0 0 0
0 0 0 0 0 0 0 0 0 0 0 0 0 0 0 0 0 0 0 0 0 0 0 0 0 0 0 0 0 0 0 0 0 0 0 0 0 0
0 0 0 0 0 0 0 0 0 0 0 0 0 0 0 0 0 0 0 0 0 0 0 0 0 0 0 0 0 0 0 0 0 0 0 0 0 0
0 0 0 0 0 0 0 0 0 0 0 0 0 0 0 0 0 0 0 0 0 0 0 0 0 0 0 0 0 0 0 0 0 0 0 0 0 0
0 0 0 0 0 0 0 0 0 0 0 0 0 0 0 0 0 0 0 0 0 0 0 0 0 0 0 0 0 0 0 0 0 0 0 0 0 0
0 0 0 0 0 0 0 0 0 0 0 0 0 0 0 0 0 0 0 0 0 0 0 0 0 0 0 0 0 0 0 0 0 0 0 0 0 0
0 0 0 0 0 0 0 0 0 0 0 0 0 0 0 0 0 0 0 0 0 0 0 0 0 0 0 0 0 0 0 0 0 0 0 0 0 0
0 0 0 0 0 0 0 0 0 0 0 0 0 0 0 0 0 0 0 0 0 0 0 0 0 0 0 0 0 0 0 0 0 0 0 0 0 0
0 0 0 0 0 0 0 0 0 0 0 0 0 0 0 0 0 0 0 0 0 0 0 0 0 0 0 0 0 0 0 0 0 0 0 0 0 0
0 0 0 0 0 0 0 0 0 0 0 0 0 0 0 0 0 0 0 0 0 0 0 0 0 0 0 0 0 0 0 0 0 0 0 0 0 0
0 0 0 0 0 0 0 0 0 0 0 0 0 0 0 0 0 0 0 0 0 0 0 0 0 0 0 0 0 0 0 0 0 0 0 0 0 0
0 0 0 0 0 0 0 0 0 0 0 0 0 0 0 0 0 0 0 0 0 0 0 0 0 0 0 0 0 0 0 0 0 0 0 0 0 0
0 0 0 0 0 0 0 0 0 0 0 0 0 0 0 0 0 0 0 0 0 0 0 0 0 0 0 0 0 0 0 0 0 0 0 0 0 0
0 0 0 0 0 0 0 0 0 0 0 0 0 0 0 0 0 0 0 0 0 0 0 0 0 0 0 0 0 0 0 0 0 0 0 0 0 0
0 0 0 0 0 0 0 0 0 0 0 0 0 0 0 0 0 0 0 0 0 0 0 0 0 0 0 0 0 0 0 0 0 0 0 0 0 0
0 0 0 0 0 0 0 0 0 0 0 0 0 0 0 0 0 0 0 0 0 0 0 0 0 0 0 0 0 0 0 0 0 0 0 0 0 0
0 0 0 0 0 0 0 0 0 0 0 0 0 0 0 0 0 0 0 0 0 0 0 0 0 0 0 0 0 0 0 0 0 0 0 0 0 0
0 0 0 0 0 0 0 0 0 0 0 0 0 0 0 0 0 0 0 0 0 0 0 0 0 0 0 0 0 0 0 0 0 0 0 0 0 0
0 0 0 0 0 0 0 0 0 0 0 0 0 0 0 0 0 0 0 0 0 0 0 0 0 0 0 0 0 0 0 0 0 0 0 0 0 0
Wind_Speed
4 4 4 3 3 3 3 4 4 4 5 4 2 2 2 2 4 3 4 8 10 11 11 11 11 11 11 11 12 12 12 11 11 12 12 12 12 13
4 4 4 3 3 3 3 3 4 5 6 4 3 3 3 4 6 4 5 9 10 11 11 11 11 11 12 12 12 12 12 12 12 13 13 13 13 13
5 5 5 4 3 3 3 3 4 4 7 6 4 3 4 4 5 4 4 5 6 11 12 12 12 12 12 13 12 13 12 12 12 13 13 14 14 14
6 6 6 4 5 4 4 4 5 5 6 8 5 4 5 5 5 5 5 5 5 9 11 12 12 12 12 12 13 13 12 12 12 12 13 13 14 14
6 6 6 5 5 4 5 4 4 5 4 6 6 4 4 4 5 5 5 4 5 7 9 10 11 12 12 13 13 13 13 12 13 13 13 13 14 14
5 5 6 6 6 5 5 5 4 4 4 5 6 5 4 4 4 4 4 4 4 5 7 8 9 11 12 12 12 12 13 13 13 13 13 13 13 13
4 5 5 7 8 7 6 5 5 5 5 5 6 5 5 4 4 4 5 4 5 4 4 4 4 5 6 9 11 12 13 13 13 13 13 13 13 13
5 5 5 6 7 9 11 10 9 7 7 6 6 7 7 5 4 5 5 5 5 3 3 5 4 5 5 5 9 12 12 12 13 13 13 13 12 12
4 4 5 5 6 4 7 9 9 11 12 9 8 8 7 6 6 7 6 6 7 4 4 7 5 6 5 6 11 12 12 12 12 12 12 12 12 13
4 5 5 5 5 5 5 6 6 7 8 7 7 8 7 7 7 7 7 7 6 5 5 7 5 5 5 4 9 11 11 11 11 11 12 12 12 12
4 5 5 5 8 9 6 6 6 6 7 9 10 10 11 12 10 6 6 6 7 5 4 5 5 5 5 5 6 9 10 11 11 12 12 12 11 11
4 4 7 7 9 10 6 5 6 6 5 6 7 8 8 8 10 7 6 7 6 5 3 4 4 4 5 4 4 4 5 9 11 11 11 11 10 6
4 4 4 8 9 10 9 6 7 7 5 5 5 5 4 4 5 5 5 6 7 7 4 3 4 4 5 5 4 4 4 4 4 6 8 10 10 8
4 4 4 8 9 10 8 8 10 8 4 4 4 5 5 4 4 4 5 6 7 7 5 5 5 5 6 6 5 3 3 3 4 4 4 6 7 9
4 6 8 9 9 7 8 9 7 4 3 4 5 5 4 4 4 4 4 5 6 6 6 6 6 6 6 7 6 4 4 3 3 3 4 4 4 4
4 6 8 8 7 7 6 6 4 3 4 4 4 4 3 3 4 3 4 4 4 5 5 5 6 6 6 6 6 5 4 4 3 3 4 4 3 4
3 2 2 3 3 3 3 3 3 3 4 4 4 4 4 4 4 3 3 3 5 5 4 3 4 4 5 5 6 6 5 4 4 3 3 4 4 3
4 2 3 3 3 4 4 4 3 4 4 4 4 4 4 4 4 3 3 4 4 5 4 3 3 3 3 4 6 6 4 4 3 3 3 4 5 3
3 3 3 3 3 4 4 4 4 4 3 4 4 4 4 4 4 4 4 4 4 5 4 3 3 4 5 6 4 4 4 4 3 3 3 4 5 4
3 3 4 4 3 4 4 4 4 4 3 4 4 4 4 4 4 4 4 4 4 5 5 4 4 4 6 6 4 4 5 4 4 4 3 3 4 5
3 3 4 4 4 4 4 4 4 4 4 4 4 4 4 4 5 5 4 7 6 5 6 5 5 6 4 3 3 4 3 5 5 4 3 3 4 3
3 3 3 3 3 3 3 3 4 4 4 4 4 4 4 4 5 5 5 5 5 5 6 5 3 3 3 4 5 4 4 3 4 6 7 6 4 4
4 4 3 3 3 3 3 4 4 4 4 4 4 4 4 4 4 5 5 5 5 5 5 5 4 3 4 4 4 4 4 4 3 2 3 5 7 8
Wind_Direction
241 243 244 246 252 251 237 217 226 258 265 256 251 250 249 241 253 244 242 262 270 267 267 270 271 272 272 275 268 267 269 270 271 269 269 270 271 268
241 242 246 244 252 252 242 235 228 236 259 258 263 269 270 271 268 258 250 267 268 271 268 268 270 271 272 272 271 265 266 266 266 267 267 269 270 271
248 242 246 245 247 253 249 242 241 232 253 269 269 271 268 271 272 259 256 250 253 265 268 266 268 270 270 271 272 266 263 264 264 266 267 268 269 271
244 243 245 245 244 251 246 245 244 239 244 263 268 272 268 265 267 262 269 264 252 263 267 267 268 268 268 270 270 267 260 261 263 265 266 267 267 269
244 244 243 241 242 251 248 247 249 253 247 255 267 267 270 267 272 271 272 267 268 265 268 269 268 270 270 270 268 268 262 261 261 262 263 265 266 267
248 249 248 240 239 245 248 245 250 254 253 255 262 261 264 266 264 261 273 262 267 273 268 268 271 274 274 273 271 270 264 261 260 260 261 262 263 265
253 252 254 252 251 254 250 242 240 245 248 252 257 263 260 260 258 263 266 271 269 263 262 263 268 263 263 267 268 268 263 261 259 259 260 261 262 263
258 260 262 259 262 267 267 263 253 245 245 249 255 256 259 260 263 268 269 276 274 254 270 276 264 263 259 250 262 267 270 266 262 260 259 260 261 264
257 260 265 266 267 259 270 274 269 266 259 253 253 256 258 253 253 258 259 263 269 270 281 277 269 266 267 270 271 269 269 269 266 265 260 259 260 262
254 252 254 262 264 263 260 262 261 263 263 258 252 257 263 262 250 253 260 268 271 265 258 270 269 267 276 271 271 269 271 274 269 267 266 262 262 262
259 259 257 256 269 272 262 260 266 270 277 273 269 269 270 272 270 263 257 261 270 268 244 252 266 279 275 268 268 270 270 273 272 270 268 267 265 263
264 266 268 268 270 273 261 254 260 266 272 278 275 274 272 274 275 260 250 253 266 270 241 241 262 278 280 262 254 263 267 272 270 267 269 269 266 258
265 265 265 273 275 277 273 262 265 273 266 267 272 273 269 262 258 252 249 249 254 257 257 259 267 264 263 277 280 268 261 266 264 262 265 266 263 258
264 264 267 279 282 283 279 276 280 285 272 265 266 267 266 261 261 256 252 251 252 258 258 258 267 263 265 272 277 279 272 266 265 264 251 258 260 263
267 275 279 280 283 285 287 289 287 273 263 263 263 264 261 260 258 258 258 258 262 264 263 256 254 259 260 261 268 271 286 283 261 261 256 246 247 245
278 278 282 286 285 283 285 286 277 263 258 258 265 266 266 263 263 257 259 260 269 273 263 256 251 253 262 262 261 267 263 263 272 276 278 266 248 238
282 267 263 271 271 274 273 271 274 273 267 263 263 267 266 264 266 263 256 262 261 268 276 265 250 245 251 262 262 259 257 259 257 264 277 276 259 244
283 265 264 265 267 272 274 276 274 275 274 270 266 262 264 266 269 270 263 259 262 263 265 268 265 265 260 261 253 255 253 255 258 260 267 270 270 257
286 277 273 270 270 272 272 274 279 277 276 273 272 269 265 263 262 264 263 258 261 265 264 261 259 255 261 268 265 238 250 257 257 259 262 271 270 271
278 274 276 276 274 273 271 272 277 278 274 274 273 269 265 264 262 258 259 259 261 267 270 260 252 247 250 262 273 279 260 251 249 256 267 281 282 282
285 279 277 276 275 276 275 274 274 275 276 274 272 268 265 263 261 259 257 262 263 261 264 266 262 266 261 256 262 268 271 260 256 250 256 276 287 285
290 288 288 288 286 285 285 284 283 279 279 273 271 268 265 259 257 258 257 257 259 260 265 271 268 264 256 251 257 264 277 286 279 271 265 256 251 249
294 291 289 289 287 287 286 283 280 278 273 273 270 269 265 263 261 259 259 258 260 262 269 272 270 265 261 256 261 264 267 274 280 285 288 284 274 271